Location: Bern�tre
(50.1974°N, 2.0915°E)
Time: 06:22:55
(UTC+00:00)

ATLAS 2AS CENTAUR R/B - Pass Details

Date: 18 September 2020
Orbit: 939 x 1273 km, 63.7° (Epoch: 19 October)

Event Time Altitude Azimuth Distance (km) Brightness Sun altitude
Rises 19:14:01 0° 159° (SSE) 4,191 5.4 -12.8°
Enters shadow 19:16:57 - 147° (SSE) 3,461 4.9 -13.2°
Exits shadow 19:24:45 15° 86° (E) 2,869 4.4 -14.4°
Drops below altitude 10° 19:27:18 10° 68° (ENE) 3,261 4.8 -14.8°
Sets 19:31:12 0° 50° (NE) 4,208 5.5 -15.4°
